Time,TemperatureF,DewpointF,PressureIn,WindDirection,WindDirectionDegrees,WindSpeedMPH,WindSpeedGustMPH,Humidity,HourlyPrecipIn,Conditions,Clouds,dailyrainin,SoftwareType,DateUTC
2013-02-04 00:02:00,28.6,16.0,25.54,NW,323,5.0,7.0,59,0.00,,,0.00,weatherlink.com 1.10,2013-02-04 07:02:00,
2013-02-04 00:17:00,29.6,16.0,25.55,NW,309,4.0,8.0,56,0.00,,,0.00,weatherlink.com 1.10,2013-02-04 07:17:00,
2013-02-04 00:32:00,28.5,15.0,25.55,WNW,285,2.0,2.0,57,0.00,,,0.00,weatherlink.com 1.10,2013-02-04 07:32:00,
2013-02-04 00:47:00,26.9,15.0,25.55,WNW,297,3.0,6.0,60,0.00,,,0.00,weatherlink.com 1.10,2013-02-04 07:47:00,
2013-02-04 01:02:00,27.6,16.0,25.55,WNW,297,6.0,8.0,61,0.00,,,0.00,weatherlink.com 1.10,2013-02-04 08:02:00,
2013-02-04 01:17:00,28.2,16.0,25.55,NW,304,8.0,10.0,60,0.00,,,0.00,weatherlink.com 1.10,2013-02-04 08:17:00,
2013-02-04 01:32:00,29.0,16.0,25.55,WNW,301,8.0,10.0,58,0.00,,,0.00,weatherlink.com 1.10,2013-02-04 08:32:00,
2013-02-04 01:47:00,29.2,16.0,25.55,WNW,300,9.0,9.0,57,0.00,,,0.00,weatherlink.com 1.10,2013-02-04 08:47:00,
2013-02-04 02:02:00,28.6,15.0,25.56,NW,314,7.0,9.0,58,0.00,,,0.00,weatherlink.com 1.10,2013-02-04 09:02:00,
2013-02-04 02:17:00,29.1,16.0,25.56,NW,319,6.0,8.0,58,0.00,,,0.00,weatherlink.com 1.10,2013-02-04 09:17:00,
2013-02-04 02:32:00,27.0,14.0,25.56,WNW,300,4.0,7.0,59,0.00,,,0.00,weatherlink.com 1.10,2013-02-04 09:32:00,
2013-02-04 02:47:00,25.0,13.0,25.55,NNW,332,3.0,6.0,61,0.00,,,0.00,weatherlink.com 1.10,2013-02-04 09:47:00,
2013-02-04 03:02:00,23.8,15.0,25.55,NNW,339,3.0,5.0,68,0.00,,,0.00,weatherlink.com 1.10,2013-02-04 10:02:00,
2013-02-04 03:17:00,25.7,15.0,25.55,North,349,2.0,4.0,63,0.00,,,0.00,weatherlink.com 1.10,2013-02-04 10:17:00,
2013-02-04 03:32:00,23.8,13.0,25.55,WSW,243,1.0,2.0,64,0.00,,,0.00,weatherlink.com 1.10,2013-02-04 10:32:00,
2013-02-04 03:47:00,23.5,13.0,25.55,SW,236,1.0,2.0,65,0.00,,,0.00,weatherlink.com 1.10,2013-02-04 10:47:00,
2013-02-04 04:02:00,22.3,14.0,25.55,WSW,257,3.0,3.0,69,0.00,,,0.00,weatherlink.com 1.10,2013-02-04 11:02:00,
2013-02-04 04:33:00,21.5,14.0,25.55,WSW,240,3.0,4.0,74,0.00,,,0.00,weatherlink.com 1.10,2013-02-04 11:33:00,
2013-02-04 04:48:00,20.3,12.0,25.55,SSW,205,4.0,5.0,70,0.00,,,0.00,weatherlink.com 1.10,2013-02-04 11:48:00,
2013-02-04 05:03:00,20.4,13.0,25.54,SW,224,4.0,4.0,73,0.00,,,0.00,weatherlink.com 1.10,2013-02-04 12:03:00,
2013-02-04 05:18:00,18.9,13.0,25.54,WSW,240,7.0,8.0,78,0.00,,,0.00,weatherlink.com 1.10,2013-02-04 12:18:00,
2013-02-04 05:33:00,18.8,13.0,25.55,WSW,245,3.0,5.0,77,0.00,,,0.00,weatherlink.com 1.10,2013-02-04 12:33:00,
2013-02-04 05:48:00,17.5,12.0,25.55,West,262,2.0,4.0,79,0.00,,,0.00,weatherlink.com 1.10,2013-02-04 12:48:00,
2013-02-04 06:03:00,17.3,12.0,25.55,WSW,241,4.0,4.0,80,0.00,,,0.00,weatherlink.com 1.10,2013-02-04 13:03:00,
2013-02-04 06:18:00,17.8,12.0,25.55,WSW,255,2.0,3.0,79,0.00,,,0.00,weatherlink.com 1.10,2013-02-04 13:18:00,
2013-02-04 06:33:00,16.7,11.0,25.55,WSW,245,1.0,3.0,78,0.00,,,0.00,weatherlink.com 1.10,2013-02-04 13:33:00,
2013-02-04 06:48:00,17.6,13.0,25.54,WNW,294,2.0,2.0,82,0.00,,,0.00,weatherlink.com 1.10,2013-02-04 13:48:00,
2013-02-04 07:03:00,19.1,13.0,25.53,West,281,3.0,3.0,76,0.00,,,0.00,weatherlink.com 1.10,2013-02-04 14:03:00,
2013-02-04 07:18:00,20.1,14.0,25.52,WSW,257,5.0,5.0,76,0.00,,,0.00,weatherlink.com 1.10,2013-02-04 14:18:00,
2013-02-04 07:33:00,20.7,14.0,25.53,West,262,4.0,6.0,76,0.00,,,0.00,weatherlink.com 1.10,2013-02-04 14:33:00,
2013-02-04 07:48:00,23.5,16.0,25.53,West,267,6.0,6.0,74,0.00,,,0.00,weatherlink.com 1.10,2013-02-04 14:48:00,
2013-02-04 08:18:00,29.2,19.0,25.53,West,264,7.0,8.0,66,0.00,,,0.00,weatherlink.com 1.10,2013-02-04 15:18:00,
2013-02-04 08:33:00,30.4,18.0,25.53,WSW,243,9.0,9.0,61,0.00,,,0.00,weatherlink.com 1.10,2013-02-04 15:33:00,
2013-02-04 08:48:00,31.0,19.0,25.53,WSW,245,6.0,8.0,61,0.00,,,0.00,weatherlink.com 1.10,2013-02-04 15:48:00,
2013-02-04 09:03:00,33.9,18.0,25.53,WNW,289,7.0,10.0,52,0.00,,,0.00,weatherlink.com 1.10,2013-02-04 16:03:00,
2013-02-04 09:18:00,35.8,17.0,25.53,WNW,285,11.0,12.0,47,0.00,,,0.00,weatherlink.com 1.10,2013-02-04 16:18:00,
2013-02-04 09:33:00,37.7,17.0,25.52,WNW,283,9.0,12.0,44,0.00,,,0.00,weatherlink.com 1.10,2013-02-04 16:33:00,
2013-02-04 09:48:00,40.7,17.0,25.52,West,279,9.0,13.0,39,0.00,,,0.00,weatherlink.com 1.10,2013-02-04 16:48:00,
2013-02-04 10:03:00,44.4,15.0,25.51,NW,312,16.0,24.0,30,0.00,,,0.00,weatherlink.com 1.10,2013-02-04 17:03:00,
2013-02-04 10:19:00,46.8,13.0,25.51,WNW,293,13.0,23.0,26,0.00,,,0.00,weatherlink.com 1.10,2013-02-04 17:19:00,
2013-02-04 10:34:00,47.3,14.0,25.50,NW,308,24.0,28.0,26,0.00,,,0.00,weatherlink.com 1.10,2013-02-04 17:34:00,
2013-02-04 10:49:00,47.8,13.0,25.50,NW,304,25.0,29.0,25,0.00,,,0.00,weatherlink.com 1.10,2013-02-04 17:49:00,
2013-02-04 11:04:00,48.4,14.0,25.50,WNW,300,22.0,30.0,25,0.00,,,0.00,weatherlink.com 1.10,2013-02-04 18:04:00,
2013-02-04 11:19:00,49.1,14.0,25.49,NW,304,23.0,28.0,24,0.00,,,0.00,weatherlink.com 1.10,2013-02-04 18:19:00,
2013-02-04 11:34:00,49.6,13.0,25.48,NW,314,17.0,26.0,23,0.00,,,0.00,weatherlink.com 1.10,2013-02-04 18:34:00,
2013-02-04 11:49:00,50.1,14.0,25.47,NW,305,18.0,25.0,24,0.00,,,0.00,weatherlink.com 1.10,2013-02-04 18:49:00,
2013-02-04 12:04:00,50.6,13.0,25.47,NW,314,20.0,26.0,22,0.00,,,0.00,weatherlink.com 1.10,2013-02-04 19:04:00,
2013-02-04 12:19:00,50.9,14.0,25.46,NW,307,22.0,29.0,23,0.00,,,0.00,weatherlink.com 1.10,2013-02-04 19:19:00,
2013-02-04 12:34:00,51.2,13.0,25.45,NW,309,18.0,28.0,22,0.00,,,0.00,weatherlink.com 1.10,2013-02-04 19:34:00,
2013-02-04 12:49:00,51.6,14.0,25.46,NW,314,14.0,28.0,22,0.00,,,0.00,weatherlink.com 1.10,2013-02-04 19:49:00,
2013-02-04 13:04:00,51.0,13.0,25.45,WNW,301,20.0,32.0,22,0.00,,,0.00,weatherlink.com 1.10,2013-02-04 20:04:00,
2013-02-04 13:49:00,51.5,14.0,25.44,NW,308,22.0,33.0,22,0.00,,,0.00,weatherlink.com 1.10,2013-02-04 20:49:00,
2013-02-04 14:04:00,51.4,14.0,25.44,NW,308,26.0,31.0,22,0.00,,,0.00,weatherlink.com 1.10,2013-02-04 21:04:00,
2013-02-04 14:19:00,51.9,14.0,25.43,NW,325,17.0,26.0,22,0.00,,,0.00,weatherlink.com 1.10,2013-02-04 21:19:00,
2013-02-04 14:34:00,51.5,14.0,25.44,NW,316,22.0,29.0,22,0.00,,,0.00,weatherlink.com 1.10,2013-02-04 21:34:00,
2013-02-04 14:49:00,50.4,14.0,25.44,NW,323,14.0,22.0,23,0.00,,,0.00,weatherlink.com 1.10,2013-02-04 21:49:00,
2013-02-04 15:04:00,50.5,15.0,25.43,NW,317,16.0,19.0,24,0.00,,,0.00,weatherlink.com 1.10,2013-02-04 22:04:00,
2013-02-04 15:19:00,50.6,15.0,25.43,NW,314,15.0,21.0,24,0.00,,,0.00,weatherlink.com 1.10,2013-02-04 22:19:00,
2013-02-04 15:34:00,51.0,14.0,25.44,NW,322,19.0,25.0,23,0.00,,,0.00,weatherlink.com 1.10,2013-02-04 22:34:00,
2013-02-04 15:50:00,50.9,14.0,25.44,NW,309,20.0,24.0,23,0.00,,,0.00,weatherlink.com 1.10,2013-02-04 22:50:00,
2013-02-04 16:04:00,50.7,17.0,25.45,NW,319,14.0,26.0,26,0.00,,,0.00,weatherlink.com 1.10,2013-02-04 23:04:00,
2013-02-04 16:19:00,49.8,16.0,25.45,NW,308,16.0,-999.0,26,-99.99,,,0.00,weatherlink.com 1.10,2013-02-04 23:19:00,
2013-02-04 16:34:00,49.3,16.0,25.45,NW,308,17.0,24.0,27,0.00,,,0.00,weatherlink.com 1.10,2013-02-04 23:34:00,
2013-02-04 16:49:00,48.3,16.0,25.45,NW,318,16.0,21.0,28,0.00,,,0.00,weatherlink.com 1.10,2013-02-04 23:49:00,
2013-02-04 17:04:00,46.8,17.0,25.46,NW,318,14.0,20.0,30,0.00,,,0.00,weatherlink.com 1.10,2013-02-05 00:04:00,
2013-02-04 17:19:00,45.4,16.0,25.46,WNW,301,11.0,16.0,31,0.00,,,0.00,weatherlink.com 1.10,2013-02-05 00:19:00,
2013-02-04 17:34:00,43.0,16.0,25.47,NW,309,7.0,11.0,33,0.00,,,0.00,weatherlink.com 1.10,2013-02-05 00:34:00,
2013-02-04 17:49:00,39.6,15.0,25.47,WNW,301,6.0,9.0,37,0.00,,,0.00,weatherlink.com 1.10,2013-02-05 00:49:00,
2013-02-04 18:04:00,38.3,16.0,25.48,WNW,298,8.0,9.0,40,0.00,,,0.00,weatherlink.com 1.10,2013-02-05 01:04:00,
2013-02-04 18:19:00,38.2,17.0,25.49,WNW,299,8.0,11.0,42,0.00,,,0.00,weatherlink.com 1.10,2013-02-05 01:19:00,
2013-02-04 18:34:00,36.4,17.0,25.49,NW,305,8.0,10.0,45,0.00,,,0.00,weatherlink.com 1.10,2013-02-05 01:34:00,
2013-02-04 18:49:00,36.9,17.0,25.49,NNE,13,6.0,12.0,45,0.00,,,0.00,weatherlink.com 1.10,2013-02-05 01:49:00,
2013-02-04 19:04:00,38.3,17.0,25.49,NW,326,4.0,15.0,43,0.00,,,0.00,weatherlink.com 1.10,2013-02-05 02:04:00,
2013-02-04 19:19:00,36.9,16.0,25.50,NNE,13,3.0,5.0,43,0.00,,,0.00,weatherlink.com 1.10,2013-02-05 02:19:00,
2013-02-04 19:34:00,36.1,16.0,25.50,NW,319,2.0,4.0,44,0.00,,,0.00,weatherlink.com 1.10,2013-02-05 02:34:00,
2013-02-04 20:04:00,34.5,17.0,25.49,NW,319,2.0,6.0,49,0.00,,,0.00,weatherlink.com 1.10,2013-02-05 03:04:00,
2013-02-04 20:19:00,33.3,17.0,25.49,NW,307,3.0,5.0,52,0.00,,,0.00,weatherlink.com 1.10,2013-02-05 03:19:00,
2013-02-04 20:34:00,32.3,17.0,25.49,NW,314,6.0,7.0,54,0.00,,,0.00,weatherlink.com 1.10,2013-02-05 03:34:00,
2013-02-04 20:49:00,33.5,18.0,25.50,NW,311,8.0,10.0,54,0.00,,,0.00,weatherlink.com 1.10,2013-02-05 03:49:00,
2013-02-04 21:04:00,33.6,18.0,25.50,NW,310,7.0,10.0,54,0.00,,,0.00,weatherlink.com 1.10,2013-02-05 04:04:00,
2013-02-04 21:19:00,33.6,19.0,25.50,NW,304,8.0,9.0,55,0.00,,,0.00,weatherlink.com 1.10,2013-02-05 04:19:00,
2013-02-04 21:34:00,33.9,19.0,25.50,NW,314,9.0,12.0,55,0.00,,,0.00,weatherlink.com 1.10,2013-02-05 04:34:00,
2013-02-04 21:49:00,34.4,20.0,25.50,NW,306,6.0,10.0,55,0.00,,,0.00,weatherlink.com 1.10,2013-02-05 04:49:00,
2013-02-04 22:04:00,32.3,19.0,25.50,WSW,252,4.0,5.0,58,0.00,,,0.00,weatherlink.com 1.10,2013-02-05 05:04:00,
2013-02-04 22:19:00,34.3,20.0,25.50,West,281,6.0,11.0,57,0.00,,,0.00,weatherlink.com 1.10,2013-02-05 05:19:00,
2013-02-04 22:34:00,35.4,20.0,25.50,NW,308,9.0,14.0,54,0.00,,,0.00,weatherlink.com 1.10,2013-02-05 05:34:00,
2013-02-04 22:50:00,34.9,20.0,25.50,NW,314,9.0,13.0,55,0.00,,,0.00,weatherlink.com 1.10,2013-02-05 05:50:00,
2013-02-04 23:05:00,34.1,20.0,25.50,NW,312,11.0,16.0,57,0.00,,,0.00,weatherlink.com 1.10,2013-02-05 06:05:00,
2013-02-04 23:20:00,31.5,19.0,25.50,NW,311,7.0,10.0,60,0.00,,,0.00,weatherlink.com 1.10,2013-02-05 06:20:00,
2013-02-04 23:35:00,31.1,19.0,25.50,NW,305,8.0,10.0,62,0.00,,,0.00,weatherlink.com 1.10,2013-02-05 06:35:00,
2013-02-04 23:50:00,32.7,20.0,25.50,WSW,248,6.0,8.0,59,0.00,,,0.00,weatherlink.com 1.10,2013-02-05 06:50:00,